• En Colombia
  • Lista de países
  • Para 7 días
  • Temperatura del agua
  • El tiempo en el mapa
  • Informadores
  • user-avatar
    Iniciar sesión

    Tiempo cada hora Kalgoorlie

    Hoy, 21 Enero, Martes

    Tiempo Temperatura Precipitaciones Viento Presión Humedad
    00:00 +27°C° 0 mm 4 mps 725 mmHg 30%
    01:00 +26°C° 0 mm 3 mps 725 mmHg 31%
    02:00 +26°C° 0 mm 3 mps 724 mmHg 33%
    03:00 +25°C° 0 mm 3 mps 724 mmHg 34%
    04:00 +25°C° 0 mm 3 mps 724 mmHg 35%
    05:00 +25°C° 0 mm 4 mps 724 mmHg 36%
    06:00 +26°C° 0 mm 5 mps 725 mmHg 33%
    07:00 +28°C° 0 mm 6 mps 725 mmHg 29%
    08:00 +29°C° 0 mm 7 mps 725 mmHg 26%
    09:00 +32°C° 0 mm 7 mps 725 mmHg 25%
    10:00 +34°C° 0 mm 8 mps 725 mmHg 24%
    11:00 +37°C° 0 mm 9 mps 724 mmHg 23%
    12:00 +38°C° 0 mm 9 mps 724 mmHg 22%
    13:00 +38°C° 0 mm 9 mps 723 mmHg 21%
    14:00 +38°C° 0 mm 10 mps 723 mmHg 20%
    15:00 +38°C° 0 mm 9 mps 723 mmHg 18%
    16:00 +38°C° 0 mm 9 mps 723 mmHg 15%
    17:00 +37°C° 0 mm 9 mps 722 mmHg 13%
    18:00 +35°C° 0 mm 8 mps 723 mmHg 18%
    19:00 +33°C° 0 mm 8 mps 723 mmHg 23%
    20:00 +30°C° 0 mm 7 mps 723 mmHg 28%
    21:00 +28°C° 0 mm 8 mps 724 mmHg 39%
    22:00 +24°C° 0 mm 9 mps 724 mmHg 50%
    23:00 +21°C° 0 mm 10 mps 725 mmHg 60%

    Mañana, 22 Enero, Miércoles

    Tiempo Temperatura Precipitaciones Viento Presión Humedad
    00:00 +19°C° 0 mm 9 mps 725 mmHg 61%
    01:00 +18°C° 0 mm 8 mps 725 mmHg 62%
    02:00 +17°C° 0 mm 6 mps 725 mmHg 64%
    03:00 +17°C° 0 mm 6 mps 725 mmHg 63%
    04:00 +16°C° 0 mm 6 mps 726 mmHg 63%
    05:00 +16°C° 0 mm 6 mps 726 mmHg 63%
    06:00 +16°C° 0 mm 5 mps 727 mmHg 59%
    07:00 +17°C° 0 mm 5 mps 727 mmHg 55%
    08:00 +17°C° 0 mm 5 mps 728 mmHg 52%
    09:00 +20°C° 0 mm 5 mps 728 mmHg 44%
    10:00 +21°C° 0 mm 5 mps 727 mmHg 37%
    11:00 +23°C° 0 mm 5 mps 727 mmHg 29%
    12:00 +25°C° 0 mm 5 mps 727 mmHg 27%
    13:00 +27°C° 0 mm 6 mps 726 mmHg 25%
    14:00 +28°C° 0 mm 7 mps 726 mmHg 23%
    15:00 +28°C° 0 mm 7 mps 726 mmHg 25%
    16:00 +28°C° 0 mm 7 mps 726 mmHg 26%
    17:00 +28°C° 0 mm 8 mps 726 mmHg 28%
    18:00 +27°C° 0 mm 8 mps 727 mmHg 31%
    19:00 +26°C° 0 mm 8 mps 727 mmHg 34%
    20:00 +23°C° 0 mm 7 mps 727 mmHg 37%
    21:00 +22°C° 0 mm 7 mps 728 mmHg 41%
    22:00 +21°C° 0 mm 7 mps 728 mmHg 44%
    23:00 +20°C° 0 mm 7 mps 729 mmHg 47%

    Pasado mañana, 23 Enero, Jueves

    Tiempo Temperatura Precipitaciones Viento Presión Humedad
    00:00 +19°C° 0 mm 6 mps 728 mmHg 49%
    01:00 +19°C° 0 mm 5 mps 728 mmHg 51%
    02:00 +19°C° 0 mm 4 mps 728 mmHg 54%
    03:00 +18°C° 0 mm 4 mps 728 mmHg 55%
    04:00 +18°C° 0 mm 3 mps 728 mmHg 57%
    05:00 +18°C° 0 mm 3 mps 729 mmHg 58%
    06:00 +19°C° 0 mm 4 mps 729 mmHg 57%
    07:00 +20°C° 0 mm 5 mps 729 mmHg 55%
    08:00 +20°C° 0 mm 6 mps 729 mmHg 53%
    09:00 +22°C° 0 mm 5 mps 729 mmHg 50%
    10:00 +23°C° 0 mm 5 mps 729 mmHg 46%
    11:00 +26°C° 0 mm 5 mps 730 mmHg 42%
    12:00 +27°C° 0 mm 5 mps 729 mmHg 39%
    13:00 +28°C° 0 mm 5 mps 729 mmHg 37%
    14:00 +29°C° 0 mm 5 mps 728 mmHg 34%
    15:00 +29°C° 0 mm 5 mps 728 mmHg 34%
    16:00 +29°C° 0 mm 6 mps 728 mmHg 33%
    17:00 +30°C° 0 mm 6 mps 728 mmHg 32%
    18:00 +29°C° 0 mm 5 mps 728 mmHg 33%
    19:00 +28°C° 0 mm 4 mps 728 mmHg 35%
    20:00 +27°C° 0 mm 4 mps 729 mmHg 36%
    21:00 +26°C° 0 mm 5 mps 729 mmHg 40%
    22:00 +25°C° 0 mm 5 mps 729 mmHg 44%
    23:00 +23°C° 0 mm 6 mps 730 mmHg 48%

    24 Enero, Viernes

    Tiempo Temperatura Precipitaciones Viento Presión Humedad
    00:00 +22°C° 0 mm 6 mps 729 mmHg 51%
    01:00 +22°C° 0 mm 5 mps 729 mmHg 54%
    02:00 +21°C° 0 mm 5 mps 729 mmHg 57%
    03:00 +20°C° 0 mm 5 mps 729 mmHg 60%
    04:00 +20°C° 0 mm 5 mps 729 mmHg 62%
    05:00 +19°C° 0 mm 4 mps 730 mmHg 65%
    06:00 +20°C° 0 mm 4 mps 730 mmHg 61%
    07:00 +21°C° 0 mm 4 mps 730 mmHg 58%
    08:00 +21°C° 0 mm 4 mps 731 mmHg 54%
    09:00 +24°C° 0 mm 3 mps 731 mmHg 49%
    10:00 +26°C° 0 mm 3 mps 730 mmHg 43%
    11:00 +27°C° 0 mm 2 mps 730 mmHg 37%
    12:00 +29°C° 0 mm 2 mps 730 mmHg 33%
    13:00 +30°C° 0 mm 2 mps 729 mmHg 28%
    14:00 +31°C° 0 mm 2 mps 729 mmHg 23%
    15:00 +33°C° 0 mm 3 mps 729 mmHg 22%
    16:00 +33°C° 0 mm 3 mps 728 mmHg 21%
    17:00 +34°C° 0 mm 3 mps 728 mmHg 19%
    18:00 +33°C° 0 mm 3 mps 728 mmHg 20%
    19:00 +31°C° 0 mm 3 mps 729 mmHg 21%
    20:00 +30°C° 0 mm 3 mps 729 mmHg 22%
    21:00 +30°C° 0 mm 3 mps 729 mmHg 25%
    22:00 +29°C° 0 mm 3 mps 729 mmHg 28%
    23:00 +28°C° 0 mm 3 mps 729 mmHg 31%

    25 Enero, Sábado

    Tiempo Temperatura Precipitaciones Viento Presión Humedad
    00:00 +27°C° 0 mm 4 mps 729 mmHg 38%
    01:00 +25°C° 0 mm 5 mps 728 mmHg 46%
    02:00 +23°C° 0 mm 6 mps 728 mmHg 53%
    03:00 +23°C° 0 mm 5 mps 728 mmHg 56%
    04:00 +22°C° 0 mm 5 mps 728 mmHg 58%
    05:00 +22°C° 0 mm 4 mps 728 mmHg 60%
    06:00 +23°C° 0 mm 4 mps 729 mmHg 56%
    07:00 +25°C° 0 mm 4 mps 729 mmHg 52%
    08:00 +26°C° 0 mm 4 mps 730 mmHg 48%
    09:00 +28°C° 0 mm 3 mps 729 mmHg 42%
    10:00 +30°C° 0 mm 2 mps 729 mmHg 35%
    11:00 +32°C° 0 mm 2 mps 729 mmHg 29%
    12:00 +34°C° 0 mm 2 mps 729 mmHg 25%
    13:00 +35°C° 0 mm 2 mps 728 mmHg 21%
    14:00 +36°C° 0 mm 2 mps 727 mmHg 18%
    15:00 +36°C° 0 mm 2 mps 727 mmHg 17%
    16:00 +36°C° 0 mm 2 mps 727 mmHg 16%
    17:00 +37°C° 0 mm 2 mps 726 mmHg 16%
    18:00 +36°C° 0 mm 3 mps 727 mmHg 17%
    19:00 +35°C° 0 mm 4 mps 727 mmHg 18%
    20:00 +34°C° 0 mm 5 mps 727 mmHg 20%
    21:00 +33°C° 0 mm 5 mps 727 mmHg 21%
    22:00 +32°C° 0 mm 5 mps 727 mmHg 23%
    23:00 +30°C° 0 mm 5 mps 727 mmHg 24%

    26 Enero, Domingo

    Tiempo Temperatura Precipitaciones Viento Presión Humedad
    00:00 +29°C° 0 mm 5 mps 727 mmHg 35%
    01:00 +27°C° 0 mm 6 mps 727 mmHg 45%
    02:00 +24°C° 0 mm 6 mps 726 mmHg 55%
    03:00 +24°C° 0 mm 6 mps 727 mmHg 57%
    04:00 +23°C° 0 mm 5 mps 727 mmHg 59%
    05:00 +23°C° 0 mm 5 mps 727 mmHg 62%
    06:00 +26°C° 0 mm 5 mps 727 mmHg 54%
    07:00 +28°C° 0 mm 5 mps 727 mmHg 45%
    08:00 +30°C° 0 mm 5 mps 727 mmHg 37%
    09:00 +33°C° 0 mm 6 mps 727 mmHg 31%
    10:00 +35°C° 0 mm 6 mps 727 mmHg 25%
    11:00 +39°C° 0 mm 6 mps 726 mmHg 20%
    12:00 +40°C° 0 mm 6 mps 726 mmHg 17%
    13:00 +41°C° 0 mm 5 mps 725 mmHg 15%
    14:00 +42°C° 0 mm 5 mps 724 mmHg 13%
    15:00 +42°C° 0 mm 5 mps 724 mmHg 12%
    16:00 +43°C° 0 mm 5 mps 723 mmHg 12%
    17:00 +43°C° 0 mm 5 mps 723 mmHg 11%
    18:00 +42°C° 0 mm 4 mps 723 mmHg 12%
    19:00 +40°C° 0 mm 4 mps 723 mmHg 12%
    20:00 +38°C° 0 mm 4 mps 723 mmHg 13%
    21:00 +35°C° 0 mm 6 mps 724 mmHg 24%
    22:00 +32°C° 0 mm 9 mps 724 mmHg 35%
    23:00 +28°C° 0 mm 11 mps 724 mmHg 47%
    Mostrar más